User: anonymous   Login
Location: Bishop's University Astronomical Observatory
(45.3661°N, 71.8475°W)
Time: 23:59:09
(UTC-04:00)
Language:

Meteor 2-5 Rocket - Orbit

View from above orbital plane
View from above orbital plane
View from above satellite
View from above satellite

Ground track
Ground track

The orbit data is extracted from the following two-line orbital elements,

1 11608U 79095B   15147.16609552  .00000174  00000-0  96993-4 0  9990
2 11608 081.2150 220.7358 0055202 114.9331 245.7588 14.06066748824395
Epoch (UTC): 27 May 2015 03:59:10
Eccentricity: 0.0055202
inclination: 81.2150°
perigee height: 833 km
apogee height: 913 km
right ascension of ascending node: 220.7358°
argument of perigee: 114.9331°
revolutions per day: 14.06066748
mean anomaly at epoch: 245.7588°
orbit number at epoch: 82439

The dashed part of the orbit path shows where the satellite is in the earth's shadow,  

DLR